Regional Weather Roundup
Issued by NWS Jackson, KY

Home | Current Version | Previous Version | Graphics & Text | Print | Product List | Glossary On
Versions: 1 2 3 4 5 6 7 8 9 10 11 12 13 14 15 16 17 18 19 20 21 22 23 24 25 26 27 28 29 30 31 32 33 34 35 36 37 38 39 40 41 42 43 44 45 46 47 48 49 50
828
ASUS43 KJKL 210010
RWRJKL

EAST KENTUCKY HOURLY WEATHER ROUNDUP
NATIONAL WEATHER SERVICE JACKSON KY
700 PM EST FRI JAN 20 2017

NOTE: "FAIR" INDICATES FEW OR NO CLOUDS BELOW 12,000 FEET WITH
NO SIGNIFICANT WEATHER AND/OR OBSTRUCTIONS TO VISIBILITY.

* THESE REPORTS ARE NOT UNDER NWS QUALITY CONTROL AND MAY NOT
  REPORT WEATHER SUCH AS PRECIPITATION AND FOG.

KYZ079-080-083-085-087-088-110-112-115-119-120-210100
...EASTERN KENTUCKY...

CITY           SKY/WX    TMP DP  RH WIND       PRES   REMARKS
JACKSON        CLEAR     59  49  69 W3        29.80R
6HR MIN TEMP:  59; 6HR MAX TEMP:  68;

LONDON         CLEAR     54  45  71 CALM      29.79R
6HR MIN TEMP:  54; 6HR MAX TEMP:  66;

SOMERSET*      CLOUDY    54  46  76 CALM      29.80R
MONTICELLO*    MOCLDY    50  47  89 NW9       29.80R
6HR MIN TEMP:  50; 6HR MAX TEMP:  65;

WILLIAMSBURG*  MOCLDY    59  46  63 CALM      29.80R
MIDDLESBORO*   CLEAR     55  51  83 CALM      29.81R
6HR MIN TEMP:  55; 6HR MAX TEMP:  67;

HARLAN APT*    PTCLDY    61  46  59 CALM      29.82R
PIKE CO APT*   MOCLDY    62  47  59 S3        29.80R
BIG SANDY APT* PTCLDY    62  50  65 SW3       29.80R
6HR MIN TEMP:  61; 6HR MAX TEMP:  66;

MOREHEAD APT*  PTCLDY    59  48  67 SW6       29.80R
ASHLAND*       CLEAR     52  48  87 CALM      29.77R
$$

KYZ035-036-041-042-044-050-067-078-099-210100
...CENTRAL KENTUCKY...

CITY           SKY/WX    TMP DP  RH WIND       PRES   REMARKS
MT STERLING*   CLOUDY    55  48  76 SW3       29.80S
FLEMING/MASON* CLOUDY    55  48  79 SW3       29.80R
DANVILLE*      CLEAR     52  46  82 CALM      29.78S
LEXINGTON      PTCLDY    57  47  69 SE5       29.77S
6HR MIN TEMP:  56; 6HR MAX TEMP:  63;

FRANKFORT      PTCLDY    54  46  74 CALM      29.75S
6HR MIN TEMP:  54; 6HR MAX TEMP:  64;

LOUISVILLE     MOCLDY    58  48  69 SE7       29.73R
6HR MIN TEMP:  57; 6HR MAX TEMP:  63;

LEBANON*         N/A     57  48  72 SE5       29.76S
GLASGOW*       CLEAR     58  51  75 SE3       29.74R
BOWLING GREEN  CLOUDY    61  51  70 S3        29.72R
6HR MIN TEMP:  59; 6HR MAX TEMP:  66;

$$

KYZ091>093-OHZ055-061-077-WVZ005-015-034-035-042-210100
...SOUTHERN OHIO/WEST VIRGINIA...

CITY           SKY/WX    TMP DP  RH WIND       PRES   REMARKS
COVINGTON      MOCLDY    55  49  80 S6        29.75R
COLUMBUS       MOCLDY    56  48  74 S3        29.76R
DAYTON         CLOUDY    51  46  83 CALM      29.76R
WILMINGTON     PTCLDY    51  47  86 SW7       29.76R
HUNTINGTON     CLEAR     61  48  62 CALM      29.78R
CHARLESTON     PTCLDY    58  50  75 CALM      29.79R
PINEVILLE*     CLEAR     50  45  81 MISG      29.87R
BECKLEY        CLOUDY    51  44  77 S3        29.84R
BLUEFIELD      CLEAR     52  44  74 SW8       29.86R
LOGAN CO APT*  MOCLDY    61  48  63 CALM      29.80R
$$

VAZ002-007-008-TNZ017-027-036-066-071-210100
...SOUTHWEST VIRGINIA/EAST TENNESSEE...

CITY           SKY/WX    TMP DP  RH WIND       PRES   REMARKS
WISE*          PTCLDY    55  45  67 S7        29.86R
JONESVILLE*      N/A     54  50  87 CALM      29.84R
ABINGDON*      CLEAR     54  50  86 CALM      29.85R
BRISTOL        PTCLDY    55  48  77 CALM      29.83S
MORRISTOWN*    PTCLDY    59  52  77 CALM      29.80S
SEVIERVILLE*   CLEAR     55  48  76 CALM      29.79S
KNOXVILLE      MOCLDY    60  49  66 SW5       29.79R
LAFOLLETTE*    PTCLDY    55  50  82 CALM      29.83R
OAK RIDGE      CLEAR     58  50  75 CALM      29.81R
CROSSVILLE     PTCLDY    58  48  69 S3        29.82R
NASHVILLE      MOCLDY    61  51  70 S6        29.74R
$$

...KEY TO REMARKS...
VSB - VISIBILITY IN MILES
WCI - WIND CHILL INDEX
HX  - HEAT INDEX

$$




USA.gov is the U.S. government's official web portal to all federal, state and local government web resources and services.